Temp
12 12 12 12 12 12 13 14 14 15 14 15 14 14 15 15 15 15 15 15 14 14 14 14 13 12 12 12 11 11 11 11 11 11 11 11 10 9 9 9 9 9 8 8 8 8 9 9 8
12 11 12 12 12 12 14 14 14 14 14 15 15 15 15 15 15 15 15 15 14 14 14 14 13 13 12 12 12 11 11 11 11 11 11 10 10 9 9 9 9 8 8 8 8 8 8 8 8
12 11 11 11 12 12 14 14 14 14 14 14 15 15 15 15 15 15 15 14 14 14 13 14 13 13 12 12 12 12 11 11 11 11 10 10 10 9 9 9 9 9 8 8 8 8 8 8 8
11 11 11 11 13 14 14 14 14 14 14 14 14 14 15 14 14 14 14 14 14 13 13 14 13 13 13 12 12 12 12 11 11 11 11 10 10 10 9 9 9 9 8 8 8 7 7 7 7
11 11 10 12 14 15 13 14 14 14 14 14 14 14 14 14 14 14 14 14 13 13 13 13 13 12 12 12 12 11 11 11 11 11 11 10 10 10 9 9 9 8 8 8 7 7 7 7 7
10 10 11 12 14 14 14 13 13 14 13 13 14 14 14 14 13 13 13 13 13 13 13 13 13 12 12 12 12 11 11 11 11 11 11 10 10 10 10 9 9 8 8 8 8 8 7 7 7
10 10 11 13 14 14 14 13 14 13 13 13 14 14 13 14 13 13 13 13 13 13 13 13 13 13 13 12 12 12 11 11 11 11 11 10 10 10 10 9 9 8 8 8 8 8 8 7 7
10 9 10 12 13 13 13 12 13 13 13 13 13 13 13 13 13 12 13 12 12 12 13 13 13 13 13 13 13 11 11 11 11 11 11 10 10 10 10 9 9 9 8 8 8 7 7 8 7
10 8 9 12 12 13 12 12 14 13 13 12 12 12 13 13 13 12 13 13 12 12 12 13 13 13 12 12 12 12 12 11 11 11 11 10 10 10 10 9 9 9 8 8 7 7 7 7 7
9 8 10 12 12 11 11 11 12 13 13 13 12 12 12 12 12 13 13 12 12 12 12 12 13 12 12 12 12 12 12 11 11 11 11 10 10 10 9 9 9 9 8 7 7 7 7 7 7
9 9 10 11 11 10 10 10 11 11 12 12 13 12 12 13 12 12 13 12 12 12 12 12 12 12 12 12 12 12 12 12 11 10 10 10 10 10 9 9 9 8 8 7 7 7 7 7 7
8 9 9 10 11 10 10 10 11 11 12 12 12 13 13 12 13 12 12 12 12 12 12 12 12 12 12 12 12 12 12 12 11 10 10 10 10 9 9 9 9 8 8 7 7 7 6 6 6
8 10 8 9 10 10 9 10 11 12 11 12 13 13 12 12 13 13 13 13 13 12 12 12 12 12 12 12 12 12 12 12 11 11 10 10 10 9 9 9 8 8 8 7 7 7 6 6 6
9 8 8 8 8 9 9 10 10 12 13 12 12 12 12 12 13 13 13 13 13 13 12 12 12 12 12 12 12 12 12 12 11 11 10 10 9 9 8 8 8 8 7 7 6 6 6 6 5
8 7 7 8 8 8 8 9 11 11 12 12 13 13 12 12 12 13 13 13 13 12 12 12 12 12 12 12 12 12 12 12 11 11 10 9 9 9 9 8 8 7 7 6 6 6 6 6 5
6 6 6 8 7 8 7 11 11 11 11 12 12 12 12 12 12 12 12 12 12 12 12 12 12 12 12 12 12 12 12 12 11 10 10 9 9 9 9 7 7 7 7 6 6 5 6 5 5
4 5 7 6 8 7 7 10 10 10 11 11 11 11 12 12 12 12 12 12 12 12 12 12 12 12 12 12 12 12 11 11 11 11 10 9 9 9 8 8 7 7 6 6 6 5 5 5 4
4 5 4 4 6 7 7 9 9 9 10 10 10 11 11 11 11 11 12 12 12 12 12 12 12 12 12 12 12 11 11 11 11 11 10 9 9 8 7 7 7 7 7 6 5 5 5 4 3
4 3 3 4 5 6 7 8 8 8 9 9 10 10 11 11 11 11 11 12 12 12 12 12 12 12 12 12 11 11 11 11 11 10 9 9 9 8 8 8 7 7 6 5 5 5 4 3 3
2 2 3 4 4 5 6 5 6 7 9 10 10 10 10 10 10 11 11 12 12 12 12 12 12 12 12 11 11 11 11 11 10 10 9 9 8 8 9 7 7 6 6 5 5 4 4 3 3
1 1 2 2 4 5 5 5 7 8 9 10 10 10 10 10 11 11 11 11 12 12 12 12 12 11 11 11 11 11 11 11 10 10 9 9 8 8 7 7 6 6 5 5 4 4 4 3 3
0 1 1 2 3 3 5 4 6 8 9 9 10 10 11 11 11 11 11 11 12 12 12 12 12 11 11 11 10 11 11 10 10 9 8 8 8 8 7 6 5 5 4 4 4 4 3 3 3
0 1 1 2 3 3 4 4 7 8 9 12 11 11 11 11 11 11 11 12 12 12 13 13 12 12 11 11 10 10 10 10 9 9 9 9 8 7 6 6 4 5 4 4 3 3 3 3 3
0 1 2 2 2 1 3 4 7 8 10 11 11 11 11 11 11 11 12 12 12 12 12 12 12 11 11 11 10 10 9 9 9 9 8 8 6 6 6 5 5 4 4 3 3 3 3 3 3
0 1 -0 -0 -0 1 5 4 6 8 9 9 11 11 11 10 11 11 12 12 12 12 12 12 11 11 11 11 10 10 10 9 9 8 7 6 6 6 5 5 4 4 4 4 4 3 3 2 3
1 1 0 0 -0 2 4 4 5 8 9 11 12 12 11 11 12 12 12 12 12 12 12 11 11 11 11 10 11 11 10 9 9 8 7 6 6 6 5 4 4 4 4 4 3 3 2 3 3
0 1 2 1 2 2 5 6 6 8 11 11 12 12 12 11 12 12 11 12 11 11 11 11 11 11 11 10 10 10 9 9 8 7 7 6 6 5 4 4 4 4 3 3 3 3 3 3 3
-0 0 1 1 0 1 3 5 6 10 12 11 11 12 12 12 12 12 11 11 11 11 11 11 11 10 10 10 9 9 9 8 7 7 6 5 5 4 4 4 4 3 3 3 3 3 3 3 2
-0 -0 0 2 2 0 1 4 7 9 10 10 12 13 13 12 12 11 11 12 11 11 10 11 10 10 9 9 9 8 8 7 7 6 5 5 4 4 4 4 4 3 3 3 2 3 3 2 2
-1 -0 -0 1 1 3 3 4 8 9 9 10 13 13 13 12 12 11 11 12 12 11 11 10 10 9 9 8 8 7 7 6 6 5 5 4 4 4 4 4 4 3 3 2 2 2 2 2 2
Height
3150 3151 3152 3155 3159 3154 3154 3155 3154 3153 3156 3157 3156 3158 3161 3160 3160 3162 3159 3158 3158 3158 3159 3160 3159 3158 3158 3158 3157 3157 3156 3156 3154 3153 3152 3151 3150 3149 3146 3144 3143 3141 3139 3138 3136 3134 3134 3133 3133
3148 3149 3151 3152 3152 3152 3153 3153 3153 3152 3155 3156 3156 3155 3156 3159 3158 3156 3157 3156 3156 3157 3159 3160 3159 3157 3157 3157 3157 3156 3156 3155 3154 3152 3152 3151 3149 3148 3147 3145 3143 3141 3139 3138 3135 3133 3132 3131 3130
3146 3147 3149 3150 3147 3146 3151 3151 3150 3151 3151 3153 3154 3152 3153 3156 3157 3155 3155 3157 3158 3158 3158 3158 3157 3156 3156 3156 3155 3155 3154 3154 3153 3152 3151 3150 3148 3147 3146 3145 3143 3141 3139 3137 3135 3132 3130 3128 3128
3144 3145 3147 3145 3142 3146 3149 3149 3149 3147 3148 3150 3151 3151 3149 3154 3155 3154 3155 3156 3157 3156 3156 3156 3156 3154 3155 3155 3154 3154 3153 3152 3152 3151 3150 3149 3148 3147 3146 3144 3143 3141 3139 3137 3134 3132 3130 3128 3126
3141 3141 3142 3139 3139 3144 3147 3148 3149 3146 3145 3150 3150 3149 3148 3152 3153 3154 3154 3155 3155 3155 3155 3154 3153 3153 3153 3152 3151 3151 3150 3150 3149 3149 3148 3148 3146 3145 3144 3142 3141 3140 3138 3136 3134 3132 3129 3127 3125
3137 3139 3136 3134 3136 3142 3143 3145 3147 3143 3144 3147 3148 3149 3149 3151 3152 3153 3153 3154 3153 3153 3154 3153 3151 3150 3150 3150 3149 3148 3148 3147 3147 3146 3146 3145 3143 3142 3142 3140 3139 3138 3136 3134 3132 3130 3128 3125 3123
3134 3133 3132 3132 3134 3138 3139 3142 3142 3144 3145 3145 3146 3147 3148 3149 3150 3151 3151 3152 3152 3151 3151 3150 3149 3149 3148 3146 3146 3146 3146 3145 3145 3144 3144 3143 3141 3141 3139 3138 3138 3136 3135 3133 3131 3128 3125 3123 3121
3131 3129 3127 3128 3131 3135 3138 3140 3139 3141 3143 3146 3146 3146 3148 3148 3149 3149 3148 3149 3148 3148 3147 3147 3147 3146 3146 3145 3143 3142 3143 3143 3143 3142 3141 3140 3140 3138 3137 3136 3135 3134 3132 3131 3129 3126 3124 3121 3119
3125 3123 3121 3124 3128 3131 3133 3137 3139 3140 3141 3142 3142 3144 3146 3145 3145 3144 3144 3144 3143 3144 3144 3144 3144 3144 3143 3142 3142 3141 3140 3140 3140 3139 3138 3137 3136 3136 3134 3133 3132 3131 3130 3128 3127 3125 3123 3119 3117
3115 3113 3115 3123 3125 3126 3130 3134 3139 3139 3138 3136 3139 3141 3142 3142 3143 3142 3140 3140 3139 3140 3140 3140 3139 3138 3138 3138 3138 3137 3137 3136 3136 3136 3135 3134 3133 3132 3131 3130 3129 3127 3126 3125 3124 3122 3119 3116 3114
3109 3101 3113 3117 3120 3124 3127 3127 3132 3131 3129 3135 3133 3134 3137 3138 3137 3138 3136 3135 3135 3134 3134 3135 3135 3135 3134 3133 3132 3132 3132 3131 3132 3132 3131 3130 3129 3128 3127 3127 3126 3124 3123 3122 3120 3118 3116 3113 3110
3100 3099 3104 3110 3115 3117 3119 3122 3120 3121 3121 3127 3129 3128 3129 3129 3131 3131 3130 3130 3130 3129 3129 3130 3130 3129 3128 3127 3127 3127 3127 3127 3127 3127 3127 3125 3124 3123 3123 3122 3122 3120 3119 3118 3117 3115 3112 3109 3107
3092 3093 3097 3101 3107 3110 3113 3111 3110 3107 3113 3118 3120 3120 3120 3122 3122 3122 3122 3123 3125 3122 3122 3123 3123 3123 3122 3121 3121 3122 3122 3122 3121 3121 3121 3121 3119 3118 3118 3117 3116 3115 3115 3114 3112 3110 3108 3105 3102
3085 3085 3089 3093 3098 3102 3104 3102 3103 3099 3107 3109 3112 3112 3113 3114 3114 3114 3116 3116 3117 3117 3117 3117 3116 3116 3115 3115 3115 3116 3116 3116 3115 3114 3114 3115 3114 3114 3112 3111 3111 3110 3111 3108 3106 3105 3102 3100 3098
3078 3078 3081 3083 3090 3094 3100 3087 3083 3095 3101 3100 3103 3104 3104 3105 3109 3109 3110 3107 3108 3108 3109 3108 3109 3109 3108 3108 3109 3109 3110 3110 3109 3108 3108 3109 3108 3108 3106 3105 3106 3106 3105 3103 3101 3098 3096 3094 3093
3069 3071 3068 3072 3084 3086 3097 3055 3082 3089 3091 3092 3094 3096 3096 3098 3100 3101 3100 3099 3100 3100 3100 3100 3101 3101 3101 3101 3102 3102 3103 3103 3103 3102 3102 3103 3102 3102 3101 3100 3100 3100 3099 3097 3094 3090 3089 3087 3086
3061 3057 3057 3068 3075 3079 3082 3042 3072 3083 3086 3084 3086 3088 3088 3088 3089 3091 3092 3093 3093 3092 3092 3092 3091 3092 3094 3094 3094 3095 3097 3097 3097 3096 3096 3096 3096 3094 3094 3097 3095 3095 3093 3090 3086 3084 3082 3081 3079
3048 3050 3057 3061 3068 3071 3068 3053 3066 3073 3075 3074 3077 3078 3078 3077 3077 3081 3083 3084 3084 3084 3083 3084 3083 3084 3086 3086 3087 3088 3089 3090 3089 3090 3089 3091 3089 3090 3093 3092 3092 3089 3085 3082 3080 3078 3076 3074 3072
3049 3051 3055 3058 3064 3067 3060 3056 3060 3064 3065 3064 3064 3065 3065 3066 3071 3072 3074 3075 3076 3076 3076 3075 3075 3076 3077 3078 3079 3080 3081 3082 3082 3083 3083 3084 3083 3087 3087 3086 3085 3081 3079 3078 3075 3073 3070 3067 3065
3043 3046 3050 3055 3061 3062 3052 3049 3048 3051 3052 3053 3053 3054 3056 3059 3062 3065 3067 3068 3068 3068 3068 3067 3068 3068 3070 3070 3071 3072 3074 3075 3076 3076 3076 3077 3079 3079 3079 3080 3078 3076 3075 3073 3070 3066 3063 3061 3060
3038 3042 3048 3054 3056 3053 3050 3034 3040 3041 3043 3044 3044 3046 3049 3052 3054 3056 3058 3060 3061 3060 3061 3060 3062 3062 3062 3063 3065 3066 3068 3068 3069 3070 3070 3072 3074 3075 3074 3072 3072 3070 3069 3066 3063 3060 3058 3057 3056
3033 3041 3046 3051 3055 3051 3055 3032 3026 3028 3026 3031 3035 3038 3041 3044 3047 3049 3051 3051 3052 3053 3052 3053 3054 3055 3056 3057 3058 3060 3062 3063 3064 3064 3063 3069 3071 3069 3067 3066 3065 3064 3062 3060 3058 3056 3055 3053 3052
3029 3036 3041 3047 3050 3050 3048 3049 2997 3014 3014 3020 3026 3031 3034 3037 3040 3042 3043 3044 3044 3045 3044 3044 3047 3049 3050 3052 3052 3053 3055 3057 3056 3057 3057 3060 3061 3061 3061 3060 3059 3058 3057 3055 3054 3053 3052 3051 3049
3029 3032 3037 3043 3047 3043 3039 3045 2979 3006 3011 3015 3021 3025 3027 3031 3034 3035 3036 3037 3038 3038 3038 3037 3040 3043 3046 3047 3048 3048 3049 3050 3050 3051 3053 3054 3054 3054 3054 3054 3054 3053 3052 3051 3051 3051 3050 3049 3047
3025 3029 3033 3039 3040 3026 3023 3028 2989 3005 3009 3010 3014 3018 3022 3024 3026 3028 3030 3032 3032 3032 3033 3034 3037 3040 3041 3042 3042 3042 3043 3044 3046 3048 3049 3051 3051 3051 3051 3051 3050 3049 3049 3049 3048 3049 3048 3046 3046
3019 3023 3022 3024 3025 3020 3024 3008 2993 2999 3004 3008 3010 3014 3016 3018 3021 3024 3026 3027 3028 3028 3030 3031 3034 3036 3037 3037 3038 3040 3041 3042 3044 3045 3047 3048 3047 3047 3047 3047 3047 3047 3047 3047 3047 3046 3046 3045 3045
3015 3016 3022 3021 3019 3020 3008 2997 2997 2995 2998 3004 3007 3009 3012 3014 3017 3020 3022 3023 3023 3025 3028 3030 3031 3033 3033 3034 3036 3037 3039 3041 3041 3043 3043 3044 3044 3043 3043 3044 3044 3044 3044 3044 3044 3044 3043 3044 3045
3012 3016 3018 3019 3019 3015 3000 2995 2988 2993 2999 3002 3004 3005 3007 3010 3013 3016 3019 3019 3020 3023 3025 3027 3029 3030 3031 3032 3034 3035 3036 3037 3038 3039 3040 3040 3040 3040 3041 3041 3041 3042 3042 3042 3042 3041 3041 3043 3043
3009 3010 3012 3013 3012 3007 3001 2982 2986 2990 2999 3000 2998 3001 3004 3007 3010 3013 3015 3017 3019 3021 3023 3025 3027 3028 3029 3030 3031 3032 3033 3034 3035 3036 3037 3037 3037 3038 3039 3039 3040 3040 3040 3041 3040 3039 3040 3041 3042
3003 3005 3006 3006 3004 3002 3001 2976 2983 2990 2996 2997 2996 2999 3002 3005 3008 3011 3014 3015 3017 3019 3021 3023 3026 3027 3028 3028 3028 3030 3030 3031 3032 3033 3034 3035 3036 3036 3037 3038 3039 3039 3039 3039 3039 3038 3038 3039 3040
Wind_Speed
15 13 13 13 8 8 9 5 1 8 7 6 4 7 2 2 4 4 9 2 7 11 16 17 14 10 9 8 8 10 11 11 9 9 11 14 17 18 20 23 26 21 21 24 21 15 13 15 17
15 15 15 15 9 13 7 4 10 8 7 7 11 10 4 3 5 2 4 4 8 13 13 16 13 10 9 11 12 13 13 12 8 9 10 12 17 18 18 22 27 23 22 25 26 23 17 12 15
17 17 17 11 15 14 8 10 3 7 3 7 14 12 10 10 4 3 7 3 8 12 12 12 11 13 11 9 13 15 17 16 12 11 10 11 14 15 14 18 23 24 22 26 29 27 24 17 13
19 19 18 18 16 16 16 6 4 6 3 9 12 14 17 10 3 1 4 6 9 12 14 11 11 14 16 14 13 14 15 17 16 13 12 11 13 14 13 14 19 21 22 26 29 28 27 21 15
20 21 22 21 22 16 16 7 5 6 7 9 11 12 10 8 6 2 7 10 9 14 9 8 10 11 13 13 13 12 13 15 16 16 15 12 12 14 15 15 16 19 20 25 28 30 30 25 17
22 22 15 27 20 19 13 7 2 7 3 17 13 11 13 13 3 2 10 13 9 10 9 10 11 12 15 14 15 16 14 14 14 15 16 14 14 16 16 16 16 17 17 21 24 27 30 31 21
23 25 25 23 18 18 13 11 7 1 5 5 7 7 8 3 5 8 11 11 7 8 6 13 16 15 17 20 19 18 19 18 16 17 19 18 17 17 18 17 17 16 17 19 21 24 29 31 27
22 27 29 28 23 21 11 17 17 6 3 3 5 6 8 6 7 10 9 12 8 8 13 17 18 13 15 17 24 24 19 19 16 17 20 22 20 19 19 19 18 19 17 18 20 22 25 28 30
27 31 35 31 25 24 13 22 29 18 17 13 5 2 8 9 14 14 14 12 14 17 22 22 18 18 16 19 15 25 25 24 22 17 20 23 23 22 22 21 20 21 20 19 20 21 22 25 28
34 39 39 30 31 22 18 25 28 35 41 35 32 23 14 15 17 20 17 18 20 22 24 25 27 23 21 24 22 25 24 25 25 21 20 22 24 24 27 25 22 23 22 21 21 23 23 24 25
41 47 37 36 36 34 30 30 31 31 38 40 35 35 33 25 19 21 24 22 21 22 26 29 28 25 24 27 26 27 25 22 24 25 22 21 24 28 29 28 26 27 25 23 23 25 24 25 24
47 48 44 39 36 36 36 36 39 39 41 32 44 45 41 40 29 27 26 26 28 30 30 28 29 31 28 29 29 30 30 22 20 24 25 24 24 26 29 30 31 31 29 26 26 27 26 25 25
49 50 48 44 40 38 35 38 38 42 35 36 37 42 46 43 37 34 34 33 33 34 28 32 35 35 31 32 33 30 30 26 19 21 25 27 26 25 27 31 34 35 30 29 30 29 29 28 26
50 49 49 47 43 40 41 43 39 42 34 38 42 41 41 42 42 42 40 41 39 41 37 37 36 35 33 34 35 32 33 29 25 24 23 27 29 28 27 30 33 34 28 32 32 30 31 30 28
48 50 46 49 45 44 40 51 54 43 35 42 48 49 48 46 45 46 50 45 43 41 31 35 36 34 34 33 33 33 32 31 27 23 22 26 31 29 32 29 31 30 31 34 32 33 33 32 30
43 47 50 52 44 43 33 69 56 46 41 42 46 48 47 49 46 41 42 43 42 31 30 29 33 36 33 33 28 34 33 31 23 22 22 27 30 31 33 28 29 29 32 33 32 32 34 34 31
31 43 50 44 44 36 45 70 53 47 46 48 47 46 47 49 44 46 41 31 27 31 32 32 36 37 35 31 33 34 30 26 26 24 21 26 29 31 33 29 30 30 31 31 31 33 35 32 28
39 46 26 18 27 23 36 58 50 47 49 53 52 52 53 52 47 37 30 30 31 31 29 32 36 35 35 30 31 34 32 27 29 25 22 25 29 32 28 27 35 32 33 31 30 33 33 29 26
24 19 23 21 18 25 42 49 48 40 42 45 48 50 48 46 40 35 32 30 30 31 33 36 33 33 34 31 30 34 33 30 25 25 21 23 28 24 24 32 35 33 30 28 31 32 29 26 26
37 36 27 22 23 21 37 36 37 39 40 43 44 44 44 40 31 28 27 28 29 33 36 29 28 29 32 32 33 34 31 25 23 25 24 24 21 21 29 34 34 27 25 29 29 28 26 23 23
26 30 31 31 23 30 31 46 42 44 40 40 39 39 38 35 32 31 32 33 36 34 30 30 26 26 26 29 33 29 25 26 27 27 25 22 20 25 31 31 25 24 26 25 26 23 19 19 18
37 29 22 15 18 26 35 29 55 56 55 50 45 44 41 38 36 35 31 33 31 28 29 28 28 28 29 24 31 34 32 24 26 24 22 20 23 27 27 23 22 22 22 23 20 17 15 14 15
29 23 26 22 31 24 28 17 58 19 21 36 40 41 39 38 39 41 36 33 23 24 23 30 26 24 24 27 23 23 22 24 26 24 23 24 20 19 20 20 19 20 20 18 16 13 11 11 12
14 8 12 22 21 15 32 27 61 38 39 39 32 25 21 18 19 20 18 22 23 24 25 24 20 20 20 20 20 21 23 24 23 20 21 20 16 18 19 17 18 19 19 15 13 11 11 10 10
16 11 4 5 7 11 7 29 54 14 8 21 10 8 9 13 13 11 13 16 17 16 12 14 16 18 19 18 18 20 20 19 14 15 14 15 16 17 16 17 17 18 15 13 13 12 10 10 9
19 22 8 6 5 5 27 19 22 31 22 27 22 17 14 9 12 8 10 13 13 9 9 9 13 15 16 14 14 14 13 11 11 14 14 14 15 16 15 16 16 14 12 11 12 10 10 9 9
9 23 25 12 18 4 16 31 41 32 12 14 15 23 15 11 13 10 12 12 9 10 10 11 11 12 14 11 11 10 10 11 13 13 12 14 14 13 15 13 11 11 10 11 9 9 9 8 7
12 8 17 15 4 5 9 19 26 7 10 10 11 11 14 18 14 11 13 8 10 12 11 11 12 12 9 8 8 9 12 13 12 11 12 11 12 12 11 9 10 9 10 9 8 7 8 7 7
17 12 15 17 24 3 3 10 7 13 19 23 14 19 18 18 13 12 11 8 9 11 11 11 9 9 7 7 9 11 12 11 11 10 9 10 11 11 8 9 9 9 8 8 6 7 9 9 9
14 21 15 17 11 30 17 17 14 12 6 18 14 19 18 11 12 14 10 9 10 11 11 10 10 8 7 9 11 11 10 11 10 8 9 10 12 8 6 6 7 6 5 3 6 6 8 9 8
Wind_Direction
206 205 205 212 205 233 234 153 349 144 127 75 20 93 63 100 172 229 167 95 46 26 8 353 2 346 322 320 320 313 315 325 344 3 8 9 8 8 12 9 7 359 0 3 358 341 309 291 279
206 207 209 212 220 225 230 191 122 52 352 341 299 298 300 317 285 230 303 345 358 349 359 342 5 19 346 318 311 311 312 315 320 341 357 6 9 7 6 7 5 2 2 0 358 352 340 310 287
207 207 209 216 224 216 163 140 155 330 339 338 350 275 279 259 244 263 325 327 334 323 348 340 7 24 24 356 329 320 316 314 309 319 333 353 1 0 356 359 2 5 3 2 360 354 347 335 313
209 206 211 224 220 213 166 158 0 3 12 319 332 320 271 211 214 32 336 335 329 323 312 323 355 8 6 357 357 348 335 322 307 302 315 332 344 347 338 345 356 3 2 360 -0 357 351 340 327
214 208 218 233 228 226 216 229 296 6 56 308 314 312 230 203 184 262 348 331 348 338 339 324 350 350 340 340 336 326 335 329 316 302 301 311 322 334 334 335 345 357 0 2 2 0 356 345 332
217 214 222 232 228 233 227 239 270 57 110 310 337 269 273 228 271 268 333 326 325 321 321 310 345 336 325 311 320 317 313 322 309 297 289 299 314 318 321 326 333 345 350 356 358 355 357 353 332
225 219 228 238 238 227 245 221 201 328 350 18 313 279 284 192 207 274 298 280 294 323 307 325 326 326 330 316 304 315 314 315 311 302 293 294 300 306 308 314 321 328 337 343 345 349 352 351 343
234 231 229 234 241 244 237 211 223 194 277 82 22 183 249 178 333 287 292 247 279 302 302 302 307 304 317 310 314 305 295 295 294 296 287 283 287 294 299 303 309 316 322 330 335 339 343 348 344
242 230 234 234 235 236 247 249 214 236 262 234 237 269 294 309 313 309 305 266 264 298 296 300 292 291 294 297 288 296 299 292 284 293 294 281 282 285 289 292 298 303 307 317 324 329 333 338 341
238 238 241 241 238 229 229 251 254 269 258 252 259 245 247 301 295 296 296 306 272 283 292 292 292 293 298 298 289 291 294 298 281 285 300 291 281 276 280 285 288 293 297 306 313 318 325 329 334
239 246 253 247 249 248 245 248 249 256 252 253 249 247 261 264 282 289 288 296 297 299 294 290 292 290 293 293 288 288 289 298 294 279 290 298 283 277 276 281 283 285 288 293 303 309 317 323 323
239 246 248 252 248 251 254 260 254 251 251 253 242 253 251 262 260 267 276 283 290 287 286 285 290 292 292 291 287 289 283 289 294 286 281 292 293 282 279 278 279 278 280 288 295 300 309 315 312
243 250 247 251 251 251 253 252 253 250 249 242 241 248 249 255 261 262 266 270 276 285 291 290 294 287 281 294 285 285 277 283 288 288 277 283 291 289 284 278 276 276 277 286 288 294 303 307 306
245 249 252 252 250 253 255 254 250 246 245 239 240 249 256 256 259 261 266 271 274 280 279 282 287 281 276 284 282 283 275 277 281 286 275 276 285 284 284 281 278 277 278 281 282 291 296 301 301
243 248 249 250 251 252 255 259 248 253 249 246 244 249 253 258 264 270 271 274 275 281 282 278 276 278 273 281 277 277 271 272 281 289 276 270 281 279 282 283 284 281 280 280 289 288 293 297 294
241 244 248 249 245 249 246 257 252 250 253 252 252 253 254 261 268 270 277 280 278 275 272 270 272 275 278 274 278 270 265 273 291 286 272 266 272 279 280 285 290 285 285 283 286 291 292 294 294
225 237 243 249 247 246 240 258 260 260 259 259 260 260 262 268 266 275 271 275 274 274 274 266 271 269 275 279 271 259 263 277 297 289 272 263 270 279 282 285 283 283 284 292 293 292 293 293 292
223 229 236 249 247 251 252 262 267 267 266 264 264 265 266 268 271 278 264 274 273 279 279 276 273 264 265 274 262 258 266 280 290 285 280 264 275 278 281 288 292 289 294 295 291 290 290 291 283
231 236 247 249 259 263 260 267 270 272 267 265 264 264 266 266 268 271 265 265 282 273 282 282 273 264 260 262 263 263 270 278 277 280 275 267 270 285 285 280 289 290 290 286 287 290 294 290 284
240 244 243 243 231 240 255 258 262 257 254 256 257 258 262 268 266 268 269 272 271 279 286 284 270 260 267 265 258 259 270 272 270 272 265 266 276 273 274 277 279 280 281 286 289 294 293 289 283
235 244 253 257 245 231 269 276 258 257 256 254 255 259 260 261 260 263 271 277 279 274 280 279 276 265 270 262 258 258 262 265 267 276 279 277 273 272 275 278 271 277 284 291 296 293 292 288 284
250 239 245 255 263 261 263 288 275 263 258 256 257 255 257 257 262 266 279 275 271 267 268 271 269 267 266 270 258 256 261 265 273 275 272 270 268 270 271 266 273 283 291 293 290 290 292 293 289
249 256 246 254 247 268 257 261 269 278 265 262 260 262 264 262 264 270 269 271 261 261 269 257 256 261 261 262 258 246 253 261 267 274 275 269 272 259 259 274 285 291 293 290 289 287 291 294 299
240 240 233 221 239 249 243 233 273 265 269 272 272 271 265 260 265 262 260 264 262 263 272 258 241 253 249 251 254 256 256 262 269 266 267 269 261 261 279 286 287 292 290 288 280 275 290 296 296
225 221 191 178 204 231 300 211 232 251 262 266 254 279 249 258 245 255 259 266 276 265 256 246 241 245 250 256 262 263 261 258 250 242 243 244 259 275 281 285 289 288 283 274 263 273 299 299 288
229 217 206 183 190 237 241 238 254 257 267 270 279 269 251 230 218 236 269 268 287 241 234 233 231 240 251 261 259 256 245 237 234 234 243 261 271 279 284 283 280 273 268 258 262 280 294 301 279
200 219 228 273 294 251 230 247 261 246 243 247 268 276 254 218 218 236 255 274 238 219 228 245 241 244 257 246 240 233 225 235 240 248 263 267 271 275 274 272 267 257 245 252 268 282 289 301 273
244 214 208 214 237 241 256 257 237 214 270 260 240 238 226 207 228 230 242 266 216 220 230 239 258 240 220 213 219 237 245 246 250 257 257 260 267 271 268 254 242 238 245 261 264 274 287 274 259
229 248 229 223 233 228 290 250 248 256 249 277 231 213 224 230 240 216 234 225 212 225 235 241 220 202 206 237 247 246 247 253 255 252 250 261 261 257 248 239 233 241 246 254 274 279 280 258 253
245 230 227 231 219 240 268 263 195 217 267 319 224 218 224 220 189 210 225 212 208 210 200 188 201 209 233 249 248 247 251 249 244 236 240 238 244 242 248 232 233 238 241 264 288 262 265 244 241